Air Resources Laboratory banner image
Air Resources Laboratory web site National Oceanic and Atmospheric Administration (NOAA)

wi roundup


Office: GRB

ASUS43 KGRB 142200
RWRGRB

NORTH-CENTRAL AND NORTHEAST WISCONSIN REGIONAL WEATHER ROUNDUP
NATIONAL WEATHER SERVICE GREEN BAY WI
400 PM CST THU DEC 14 2017

WIZ005-009-010>012-018-019-142300-
NORTH CENTRAL WISCONSIN

CITY           SKY/WX    TMP DP  RH WIND       PRES   REMARKS
IRONWOOD       FLURRIES  17  11  77 W6        29.93  WCI   9
MANITOWISH WTR NOT AVBL
ARBOR VITAE    NOT AVBL
EAGLE RIVER    LGT SNOW  15  10  81 W3        29.89F
LAND O LAKES   FLURRIES  15  10  78 SW3       29.91F
RHINELANDER    LGT SNOW  17  14  88 CALM      29.91S FOG
PHILLIPS       LGT SNOW  18  16  91 SW6       29.91S WCI  10
ANTIGO         NOT AVBL
TOMAHAWK       LGT SNOW  18  14  83 W3        29.93S
MERRILL        FLURRIES  20  15  82 W7        29.95S
$$

WIZ013-073-142300-
NORTHEAST WISCONSIN

CITY           SKY/WX    TMP DP  RH WIND       PRES   REMARKS
IRON MOUNTAIN  MOCLDY    18   9  68 W9        29.92R WCI   7
MARINETTE      FLURRIES  21  13  71 VRB3      29.99R
$$

WIZ017-030-035>037-045-142300-
CENTRAL WISCONSIN

CITY           SKY/WX    TMP DP  RH WIND       PRES   REMARKS
MEDFORD        NOT AVBL
WAUSAU         CLOUDY    19  14  81 W10       29.94F WCI   7
MOSINEE        CLOUDY    19  16  86 SW7       29.97S
MARSHFIELD     CLOUDY    20  14  77 SW7       29.95F
WISC RAPIDS    CLOUDY    23  12  62 W5        30.00F
STEVENS POINT  NOT AVBL
WAUPACA        MOCLDY    24  15  66 SW7       30.01S
SHAWANO        FLURRIES  24  16  70 W5        29.99R
CLINTONVILLE   NOT AVBL
WAUTOMA        CLOUDY    23  13  65 W6        30.01S
$$

WIZ038-039-048-051-142300-
FOX VALLEY

CITY           SKY/WX    TMP DP  RH WIND       PRES   REMARKS
NWS GREEN BAY  CLOUDY    20  11  68 SW7       30.01R
APPLETON       NOT AVBL
OSHKOSH        MOCLDY    19  11  70 S6        30.00F
FOND DU LAC    CLEAR     21  10  62 SW5       30.01F
$$

WIZ022-050-052-142300-
EAST CENTRAL WISCONSIN

CITY           SKY/WX    TMP DP  RH WIND       PRES   REMARKS
EPHRAIM        MOCLDY    19  10  68 CALM      29.96S
WASHINGTON ISL NOT AVBL
STURGEON BAY   FLURRIES  20  12  71 SW7       29.99S
MANITOWOC      CLEAR     19  10  68 W5        30.02S
SHEBOYGAN      CLEAR     17  10  74 W6        30.02R WCI   9
$$

LMZ563-521-522-541>543-142300-
LAKESHORE

STATION/POSITION TIME  TEMP    WIND        PRES    VSBY  WAVE
                       AIR SEA DIR/SP/G                  HT/PER
                 (UTC) (F)     (DEG/KT/KT) (MB)    (MI)  (FT/S)
SISTER BAY LKSHO 2120   25     310/ 10/ 11   N/A
$$


ASUS43 KGRB 142211
RWRGRB

NORTH-CENTRAL AND NORTHEAST WISCONSIN REGIONAL WEATHER ROUNDUP
NATIONAL WEATHER SERVICE GREEN BAY WI
400 PM CST THU DEC 14 2017

WIZ005-009-010>012-018-019-142300-
NORTH CENTRAL WISCONSIN

CITY           SKY/WX    TMP DP  RH WIND       PRES   REMARKS
IRONWOOD       FLURRIES  17  11  77 W6        29.93  WCI   9
MANITOWISH WTR LGT SNOW  15  14  92 SW3       29.89F
ARBOR VITAE    LGT SNOW  17  14  88 CALM      29.90S
EAGLE RIVER    LGT SNOW  15  10  81 W3        29.89F
LAND O LAKES   FLURRIES  15  10  78 SW3       29.91F
RHINELANDER    LGT SNOW  17  14  88 CALM      29.91S FOG
PHILLIPS       LGT SNOW  18  16  91 SW6       29.91S WCI  10
ANTIGO         FLURRIES  18  14  86 W7        29.93S WCI   8
TOMAHAWK       LGT SNOW  18  14  83 W3        29.93S
MERRILL        FLURRIES  20  15  82 W7        29.95S
$$

WIZ013-073-142300-
NORTHEAST WISCONSIN

CITY           SKY/WX    TMP DP  RH WIND       PRES   REMARKS
IRON MOUNTAIN  MOCLDY    18   9  68 W9        29.92R WCI   7
MARINETTE      FLURRIES  21  13  71 VRB3      29.99R
OCONTO         CLOUDY    21  14  73 SW6       29.99S
$$

WIZ017-030-035>037-045-142300-
CENTRAL WISCONSIN

CITY           SKY/WX    TMP DP  RH WIND       PRES   REMARKS
MEDFORD        LGT SNOW  18  15  85 SW6       29.93S
WAUSAU         CLOUDY    19  14  81 W10       29.94F WCI   7
MOSINEE        CLOUDY    19  16  86 SW7       29.97S
MARSHFIELD     CLOUDY    20  14  77 SW7       29.95F
WISC RAPIDS    CLOUDY    23  12  62 W5        30.00F
STEVENS POINT  CLOUDY    19  14  79 W6        29.98F
WAUPACA        MOCLDY    24  15  66 SW7       30.01S
SHAWANO        FLURRIES  24  16  70 W5        29.99R
CLINTONVILLE   FLURRIES  23  14  68 W6        30.00R
WAUTOMA        CLOUDY    23  13  65 W6        30.01S
$$

WIZ038-039-048-051-142300-
FOX VALLEY

CITY           SKY/WX    TMP DP  RH WIND       PRES   REMARKS
NWS GREEN BAY  CLOUDY    20  11  68 SW7       30.01R
APPLETON       NOT AVBL
OSHKOSH        MOCLDY    19  11  70 S6        30.00F
FOND DU LAC    CLEAR     21  10  62 SW5       30.01F
$$

WIZ022-050-052-142300-
EAST CENTRAL WISCONSIN

CITY           SKY/WX    TMP DP  RH WIND       PRES   REMARKS
EPHRAIM        MOCLDY    19  10  68 CALM      29.96S
WASHINGTON ISL CLOUDY    21  11  64 W5        29.97R
STURGEON BAY   FLURRIES  20  12  71 SW7       29.99S
MANITOWOC      CLEAR     19  10  68 W5        30.02S
SHEBOYGAN      CLEAR     17  10  74 W6        30.02R WCI   9
$$

LMZ563-521-522-541>543-142300-
LAKESHORE

STATION/POSITION TIME  TEMP    WIND        PRES    VSBY  WAVE
                       AIR SEA DIR/SP/G                  HT/PER
                 (UTC) (F)     (DEG/KT/KT) (MB)    (MI)  (FT/S)
SHEBOYGAN LKSHOR 2100   22     290/  8/ 10 1017.6F
SISTER BAY LKSHO 2120   25     310/ 10/ 11   N/A
$$




Office: MKX ASUS43 KMKX 142200 RWRWI WISCONSIN REGIONAL WEATHER ROUNDUP NATIONAL WEATHER SERVICE MILWAUKEE/SULLIVAN WI 400 PM CST THU DEC 14 2017 NOTE: "FAIR" INDICATES FEW OR NO CLOUDS BELOW 12,000 FEET WITH NO SIGNIFICANT WEATHER AND/OR OBSTRUCTIONS TO VISIBILITY. WIZ001-002-006>008-014>016-023>028-142300- NORTHWEST WISCONSIN CITY SKY/WX TMP DP RH WIND PRES REMARKS SUPERIOR ARPT FLURRIES 20 13 74 W7 29.99R WCI 11 ASHLAND CLOUDY 19 12 74 W6 29.97R WCI 11 HAYWARD LGT SNOW 18 12 77 SW6 29.95S WCI 10 SIREN FLURRIES 19 13 77 W7 29.98S WCI 10 CUMBERLAND FLURRIES 19 14 79 W9 29.96S WCI 9 RICE LAKE LGT SNOW 20 16 84 CALM 29.99S CHETEK CLOUDY 20 15 81 W6 29.98S WCI 12 LADYSMITH FLURRIES 20 15 82 SW6 29.97S WCI 12 EAU CLAIRE FLURRIES 22 15 75 W10 29.99S WCI 11 MENOMONIE CLOUDY 22 16 76 W8 30.00S WCI 13 NEW RICHMOND LGT SNOW 21 16 79 W8 29.99S WCI 11 OSCEOLA LGT SNOW 21 17 83 W8 30.02F WCI 12 $$ WIZ003>005-009-010-017-018-142300- NORTH CENTRAL WISCONSIN CITY SKY/WX TMP DP RH WIND PRES REMARKS MANITOWISH WTR LGT SNOW 15 13 91 SW3 29.90S ARBOR VITAE LGT SNOW 17 13 86 CALM 29.90F WOODRUFF LGT SNOW 17 13 86 CALM 29.90F RHINELANDER LGT SNOW 17 14 88 CALM 29.91S FOG EAGLE RIVER LGT SNOW 15 10 81 W3 29.89F LAND O LAKES FLURRIES 15 10 78 SW3 29.91F PHILLIPS LGT SNOW 18 16 91 SW6 29.91S WCI 10 TOMAHAWK LGT SNOW 18 14 83 W3 29.93S MEDFORD LGT SNOW 19 14 84 SW6 29.93S WCI 10 MERRILL FLURRIES 20 15 82 W7 29.95S WCI 11 $$ WIZ029-030-035-036-043>047-142300- CENTRAL WISCONSIN CITY SKY/WX TMP DP RH WIND PRES REMARKS WAUSAU CLOUDY 19 14 81 W10 29.94F WCI 7 MOSINEE CLOUDY 19 16 86 SW7 29.97S WCI 10 MARSHFIELD CLOUDY 20 14 77 SW7 29.95F WCI 11 STEVENS POINT FLURRIES 19 14 79 W5 29.99S WCI 13 WAUPACA MOCLDY 24 15 66 SW7 30.01S WCI 16 WAUTOMA CLOUDY 23 13 65 W6 30.01S WCI 16 WISC RAPIDS CLOUDY 23 12 62 W5 30.00F WCI 17 CAMP DOUGLAS CLOUDY 25 12 58 CALM 30.00S $$ WIZ011>013-019>022-031-037>040-048>050-142300- NORTHEAST WISCONSIN CITY SKY/WX TMP DP RH WIND PRES REMARKS ANTIGO LGT SNOW 18 14 84 W7 29.93S WCI 9 SHAWANO FLURRIES 24 16 70 W5 29.99R WCI 18 OCONTO CLOUDY 21 13 72 SW5 29.99S WCI 15 STURGEON BAY FLURRIES 20 12 71 SW7 29.99S WCI 11 GREEN BAY CLOUDY 20 11 68 SW7 30.01R WCI 11 MANITOWOC CLEAR 19 10 68 W5 30.02S WCI 12 APPLETON NOT AVBL CLINTONVILLE NOT AVBL OSHKOSH MOCLDY 19 11 70 S6 30.00F WCI 11 $$ WIZ032>034-041-042-053>061-142300- SOUTHWEST WISCONSIN CITY SKY/WX TMP DP RH WIND PRES REMARKS LA CROSSE CLOUDY 26 14 60 SW6 30.03S WCI 19 SPARTA CLOUDY 25 14 62 W6 30.03S WCI 18 VIROQUA CLOUDY 23 15 71 SW6 30.00S WCI 16 BOSCOBEL PTCLDY 28 10 46 SW5 30.05R WCI 23 PRAIRIE DU CHI MOCLDY 28 13 53 SW5 30.05R WCI 22 PLATTEVILLE CLEAR 27 11 52 SW7 30.03S WCI 19 $$ WIZ056-057-062-063-064-067-068-142300- SOUTH CENTRAL WISCONSIN CITY SKY/WX TMP DP RH WIND PRES REMARKS REEDSBURG CLOUDY 24 11 59 SW7 30.02S WCI 16 BARABOO/DELLS MOCLDY 23 11 60 W6 30.01S WCI 16 LONE ROCK NOT AVBL MINERAL POINT CLEAR 28 12 50 W5 30.01R WCI 23 MADISON PTCLDY 23 10 57 NW6 30.02S WCI 16 MIDDLETON CLEAR 27 12 54 NW5 30.02S WCI 21 WATERTOWN CLEAR 23 12 62 CALM 30.03R MONROE CLEAR 27 9 46 W6 30.01S WCI 20 JANESVILLE PTCLDY 27 9 46 W5 30.03S WCI 21 $$ WIZ051-052-058>065-066-070>072-142300- SOUTHEAST WISCONSIN CITY SKY/WX TMP DP RH WIND PRES REMARKS MILWAUKEE PTCLDY 24 10 55 NW7 30.04S WCI 16 WAUKESHA CLEAR 19 9 63 NW9 30.04R WCI 9 MILWAUKEE/TIMM CLEAR 21 7 53 NW6 30.04R WCI 14 RACINE CLEAR 23 8 52 W6 30.06R WCI 16 BURLINGTON CLEAR 24 12 60 NW3 30.04R KENOSHA CLEAR 24 9 52 NW5 30.04R WCI 18 FOND DU LAC CLEAR 21 10 62 SW5 30.01F WCI 15 SHEBOYGAN CLEAR 17 10 74 W6 30.02R WCI 9 WEST BEND CLEAR 21 12 68 W5 30.02S WCI 15 JUNEAU CLEAR 20 11 67 SW3 30.02F $$ LSZ147-162-142300- LAKE SUPERIOR STATION/POSITION TIME TEMP WIND PRES WAVE AIR SEA DIR/SP/G HT/PER (UTC) (F) (DEG/KT/KT) (MB) (FT/S) SAXON HARBOR 2040 20 1014.6S $$ LMZ867-665-643>646-142300- LAKE MICHIGAN STATION/POSITION TIME TEMP WIND PRES WAVE AIR SEA DIR/SP/G HT/PER (UTC) (F) (DEG/KT/KT) (MB) (FT/S) NORTHPORT PIER 2040 22 290/ 3/ 12 1014.9F KEWAUNEE LAKESHO 1954 21 270/ 7/ 10 1015.6R SHEBOYGAN LAKESH 2000 21 290/ 7/ 10 1018.1F PORT WASHINGTON 2040 22 300/ 6/ 10 1017.9F MILWAUKEE LAKESH 2000 23 310/ 5/ 6 N/A KENOSHA LAKESH 2000 24 310/ 9/ 11 1017.3 $$ TC - TEMPERATURE IN CELSIUS VSB - VISIBILITY IN STATUTE MILES WCI - WIND CHILL INDEX HX - HEAT INDEX ASUS43 KMKX 142210 RWRWI WISCONSIN REGIONAL WEATHER ROUNDUP NATIONAL WEATHER SERVICE MILWAUKEE/SULLIVAN WI 400 PM CST THU DEC 14 2017 NOTE: "FAIR" INDICATES FEW OR NO CLOUDS BELOW 12,000 FEET WITH NO SIGNIFICANT WEATHER AND/OR OBSTRUCTIONS TO VISIBILITY. WIZ001-002-006>008-014>016-023>028-142300- NORTHWEST WISCONSIN CITY SKY/WX TMP DP RH WIND PRES REMARKS SUPERIOR ARPT FLURRIES 20 13 74 W7 29.99R WCI 11 ASHLAND CLOUDY 19 12 74 W6 29.97R WCI 11 HAYWARD LGT SNOW 18 12 77 SW6 29.95S WCI 10 SIREN CLOUDY 19 14 78 W7 29.99R WCI 10 CUMBERLAND FLURRIES 19 14 79 W9 29.96S WCI 9 RICE LAKE LGT SNOW 20 16 84 CALM 29.99S CHETEK CLOUDY 20 15 81 W5 29.98S WCI 13 LADYSMITH FLURRIES 20 15 82 SW6 29.97S WCI 12 EAU CLAIRE FLURRIES 22 15 75 W10 29.99S WCI 11 MENOMONIE CLOUDY 22 16 76 W8 30.00S WCI 13 NEW RICHMOND LGT SNOW 21 16 81 W8 29.99S WCI 11 OSCEOLA FLURRIES 21 17 84 W8 30.03R WCI 12 $$ WIZ003>005-009-010-017-018-142300- NORTH CENTRAL WISCONSIN CITY SKY/WX TMP DP RH WIND PRES REMARKS MANITOWISH WTR LGT SNOW 15 14 92 SW3 29.89F ARBOR VITAE LGT SNOW 17 14 88 CALM 29.90S WOODRUFF LGT SNOW 17 14 88 CALM 29.90S RHINELANDER LGT SNOW 17 14 88 CALM 29.91S FOG EAGLE RIVER LGT SNOW 15 10 81 W3 29.89F LAND O LAKES FLURRIES 15 10 78 SW3 29.91F PHILLIPS LGT SNOW 18 16 91 SW6 29.91S WCI 10 TOMAHAWK LGT SNOW 18 14 83 W3 29.93S MEDFORD LGT SNOW 18 15 85 SW6 29.93S WCI 10 MERRILL FLURRIES 20 15 82 W7 29.95S WCI 11 $$ WIZ029-030-035-036-043>047-142300- CENTRAL WISCONSIN CITY SKY/WX TMP DP RH WIND PRES REMARKS WAUSAU CLOUDY 19 14 81 W10 29.94F WCI 7 MOSINEE CLOUDY 19 16 86 SW7 29.97S WCI 10 MARSHFIELD CLOUDY 20 14 77 SW7 29.95F WCI 11 STEVENS POINT CLOUDY 19 14 79 W6 29.98F WCI 11 WAUPACA MOCLDY 24 15 66 SW7 30.01S WCI 16 WAUTOMA CLOUDY 23 13 65 W6 30.01S WCI 16 WISC RAPIDS CLOUDY 23 12 62 W5 30.00F WCI 17 CAMP DOUGLAS CLOUDY 25 12 58 CALM 30.00S $$ WIZ011>013-019>022-031-037>040-048>050-142300- NORTHEAST WISCONSIN CITY SKY/WX TMP DP RH WIND PRES REMARKS ANTIGO FLURRIES 18 14 86 W7 29.93S WCI 8 SHAWANO FLURRIES 24 16 70 W5 29.99R WCI 18 OCONTO CLOUDY 21 14 73 SW6 29.99S WCI 14 STURGEON BAY FLURRIES 20 12 71 SW7 29.99S WCI 11 GREEN BAY CLOUDY 20 11 68 SW7 30.01R WCI 11 MANITOWOC CLEAR 19 10 68 W5 30.02S WCI 12 APPLETON NOT AVBL CLINTONVILLE FLURRIES 23 14 68 W6 30.00R WCI 16 OSHKOSH MOCLDY 19 11 70 S6 30.00F WCI 11 $$ WIZ032>034-041-042-053>061-142300- SOUTHWEST WISCONSIN CITY SKY/WX TMP DP RH WIND PRES REMARKS LA CROSSE CLOUDY 26 14 60 SW6 30.03S WCI 19 SPARTA CLOUDY 25 14 64 W3 30.02F VIROQUA CLOUDY 23 15 71 SW6 30.00S WCI 16 BOSCOBEL PTCLDY 28 10 46 SW5 30.05R WCI 23 PRAIRIE DU CHI CLOUDY 28 13 54 SW7 30.05R WCI 20 PLATTEVILLE CLEAR 26 12 55 SW8 30.03R WCI 18 $$ WIZ056-057-062-063-064-067-068-142300- SOUTH CENTRAL WISCONSIN CITY SKY/WX TMP DP RH WIND PRES REMARKS REEDSBURG CLOUDY 24 11 59 SW7 30.02S WCI 16 BARABOO/DELLS CLOUDY 23 11 60 W6 30.01S WCI 16 LONE ROCK MOCLDY 25 13 60 W5 30.04S WCI 19 MINERAL POINT CLEAR 27 12 54 W7 30.01R WCI 19 MADISON PTCLDY 23 10 57 NW6 30.02S WCI 16 MIDDLETON CLEAR 26 12 56 W5 30.02S WCI 20 WATERTOWN CLEAR 22 12 63 CALM 30.03R MONROE CLEAR 27 9 46 W3 30.01S JANESVILLE PTCLDY 27 9 46 W5 30.03S WCI 21 $$ WIZ051-052-058>065-066-070>072-142300- SOUTHEAST WISCONSIN CITY SKY/WX TMP DP RH WIND PRES REMARKS MILWAUKEE PTCLDY 24 10 55 NW7 30.04S WCI 16 WAUKESHA CLEAR 19 9 63 NW9 30.04R WCI 9 MILWAUKEE/TIMM CLEAR 21 7 53 NW6 30.04R WCI 14 RACINE CLEAR 23 8 52 W6 30.06R WCI 16 BURLINGTON CLEAR 22 12 65 NW5 30.04R WCI 16 KENOSHA CLEAR 24 9 52 NW5 30.04R WCI 18 FOND DU LAC CLEAR 21 10 62 SW5 30.01F WCI 15 SHEBOYGAN CLEAR 17 10 74 W6 30.02R WCI 9 WEST BEND CLEAR 21 12 68 W7 30.01S WCI 13 JUNEAU CLEAR 20 10 67 CALM 30.03R $$ LSZ147-162-142300- LAKE SUPERIOR STATION/POSITION TIME TEMP WIND PRES WAVE AIR SEA DIR/SP/G HT/PER (UTC) (F) (DEG/KT/KT) (MB) (FT/S) SAXON HARBOR 2040 20 1014.6S $$ LMZ867-665-643>646-142300- LAKE MICHIGAN STATION/POSITION TIME TEMP WIND PRES WAVE AIR SEA DIR/SP/G HT/PER (UTC) (F) (DEG/KT/KT) (MB) (FT/S) NORTHPORT PIER 2040 22 290/ 3/ 12 1014.9F KEWAUNEE LAKESHO 1954 21 270/ 7/ 10 1015.6 SHEBOYGAN LAKESH 2100 22 290/ 8/ 10 1017.6F PORT WASHINGTON 2040 22 300/ 6/ 10 1017.9F MILWAUKEE LAKESH 2000 23 310/ 5/ 6 N/A KENOSHA LAKESH 2000 24 310/ 9/ 11 1017.3 $$ TC - TEMPERATURE IN CELSIUS VSB - VISIBILITY IN STATUTE MILES WCI - WIND CHILL INDEX HX - HEAT INDEX ASUS43 KMKX 142220 RWRWI WISCONSIN REGIONAL WEATHER ROUNDUP NATIONAL WEATHER SERVICE MILWAUKEE/SULLIVAN WI 400 PM CST THU DEC 14 2017 NOTE: "FAIR" INDICATES FEW OR NO CLOUDS BELOW 12,000 FEET WITH NO SIGNIFICANT WEATHER AND/OR OBSTRUCTIONS TO VISIBILITY. WIZ001-002-006>008-014>016-023>028-142300- NORTHWEST WISCONSIN CITY SKY/WX TMP DP RH WIND PRES REMARKS SUPERIOR ARPT FLURRIES 20 13 74 W7 29.99R WCI 11 ASHLAND CLOUDY 19 12 74 W6 29.97R WCI 11 HAYWARD LGT SNOW 18 12 77 SW6 29.95S WCI 10 SIREN CLOUDY 19 14 78 W7 29.99R WCI 10 CUMBERLAND FLURRIES 19 14 79 W9 29.96S WCI 9 RICE LAKE LGT SNOW 20 16 84 CALM 29.99S CHETEK CLOUDY 20 15 81 W5 29.98S WCI 13 LADYSMITH FLURRIES 20 15 82 SW6 29.97S WCI 12 EAU CLAIRE FLURRIES 22 15 75 W10 29.99S WCI 11 MENOMONIE CLOUDY 22 16 76 W8 30.00S WCI 13 NEW RICHMOND LGT SNOW 21 16 81 W8 29.99S WCI 11 OSCEOLA FLURRIES 21 17 84 W8 30.03R WCI 12 $$ WIZ003>005-009-010-017-018-142300- NORTH CENTRAL WISCONSIN CITY SKY/WX TMP DP RH WIND PRES REMARKS MANITOWISH WTR LGT SNOW 15 14 92 SW3 29.89F ARBOR VITAE LGT SNOW 17 14 88 CALM 29.90S WOODRUFF LGT SNOW 17 14 88 CALM 29.90S RHINELANDER LGT SNOW 17 14 88 CALM 29.90F FOG EAGLE RIVER LGT SNOW 15 10 81 W3 29.89F LAND O LAKES FLURRIES 15 10 78 SW3 29.91F PHILLIPS LGT SNOW 18 16 91 SW6 29.91S WCI 10 TOMAHAWK LGT SNOW 18 14 83 W3 29.93S MEDFORD LGT SNOW 18 15 85 SW6 29.93S WCI 10 MERRILL FLURRIES 20 15 82 W7 29.95S WCI 11 $$ WIZ029-030-035-036-043>047-142300- CENTRAL WISCONSIN CITY SKY/WX TMP DP RH WIND PRES REMARKS WAUSAU CLOUDY 19 14 81 W10 29.94F WCI 7 MOSINEE CLOUDY 19 16 86 SW7 29.97S WCI 10 MARSHFIELD CLOUDY 20 14 77 SW7 29.95F WCI 11 STEVENS POINT CLOUDY 19 14 79 W6 29.98F WCI 11 WAUPACA MOCLDY 24 15 66 SW7 30.01S WCI 16 WAUTOMA CLOUDY 23 13 65 W6 30.01S WCI 16 WISC RAPIDS CLOUDY 23 12 62 W5 30.00F WCI 17 CAMP DOUGLAS CLOUDY 25 12 58 CALM 30.00S $$ WIZ011>013-019>022-031-037>040-048>050-142300- NORTHEAST WISCONSIN CITY SKY/WX TMP DP RH WIND PRES REMARKS ANTIGO FLURRIES 18 14 86 W7 29.93S WCI 8 SHAWANO FLURRIES 24 16 70 W5 29.99R WCI 18 OCONTO CLOUDY 21 14 73 SW6 29.99S WCI 14 STURGEON BAY FLURRIES 20 12 71 SW7 29.99S WCI 11 GREEN BAY CLOUDY 20 11 68 SW7 30.01R WCI 11 MANITOWOC CLEAR 19 10 68 W5 30.02S WCI 12 APPLETON NOT AVBL CLINTONVILLE FLURRIES 23 14 68 W6 30.00R WCI 16 OSHKOSH MOCLDY 19 11 70 S6 30.00F WCI 11 $$ WIZ032>034-041-042-053>061-142300- SOUTHWEST WISCONSIN CITY SKY/WX TMP DP RH WIND PRES REMARKS LA CROSSE CLOUDY 26 14 60 SW6 30.03S WCI 19 SPARTA CLOUDY 25 14 64 W3 30.02F VIROQUA CLOUDY 23 15 71 SW6 30.00S WCI 16 BOSCOBEL PTCLDY 28 10 46 SW5 30.05R WCI 23 PRAIRIE DU CHI CLOUDY 28 13 54 SW7 30.05R WCI 20 PLATTEVILLE CLEAR 26 12 55 SW8 30.03R WCI 18 $$ WIZ056-057-062-063-064-067-068-142300- SOUTH CENTRAL WISCONSIN CITY SKY/WX TMP DP RH WIND PRES REMARKS REEDSBURG CLOUDY 24 11 59 SW7 30.02S WCI 16 BARABOO/DELLS CLOUDY 23 11 60 W6 30.01S WCI 16 LONE ROCK MOCLDY 25 13 60 W5 30.04S WCI 19 MINERAL POINT CLEAR 27 12 54 W7 30.01R WCI 19 MADISON PTCLDY 23 10 57 NW6 30.02S WCI 16 MIDDLETON CLEAR 26 12 56 W5 30.02S WCI 20 WATERTOWN CLEAR 22 12 63 CALM 30.03R MONROE CLEAR 27 9 46 W3 30.01S JANESVILLE PTCLDY 27 9 46 W5 30.03S WCI 21 $$ WIZ051-052-058>065-066-070>072-142300- SOUTHEAST WISCONSIN CITY SKY/WX TMP DP RH WIND PRES REMARKS MILWAUKEE PTCLDY 24 10 55 NW7 30.04S WCI 16 WAUKESHA CLEAR 19 9 63 NW9 30.04R WCI 9 MILWAUKEE/TIMM CLEAR 21 7 53 NW6 30.04R WCI 14 RACINE CLEAR 23 8 52 W6 30.06R WCI 16 BURLINGTON CLEAR 22 12 65 NW5 30.04R WCI 16 KENOSHA CLEAR 24 9 52 NW5 30.04R WCI 18 FOND DU LAC CLEAR 21 10 62 SW5 30.01F WCI 15 SHEBOYGAN CLEAR 17 10 74 W6 30.02R WCI 9 WEST BEND CLEAR 21 12 68 W7 30.01S WCI 13 JUNEAU CLEAR 20 10 67 CALM 30.03R $$ LSZ147-162-142300- LAKE SUPERIOR STATION/POSITION TIME TEMP WIND PRES WAVE AIR SEA DIR/SP/G HT/PER (UTC) (F) (DEG/KT/KT) (MB) (FT/S) SAXON HARBOR 2040 20 1014.6S $$ LMZ867-665-643>646-142300- LAKE MICHIGAN STATION/POSITION TIME TEMP WIND PRES WAVE AIR SEA DIR/SP/G HT/PER (UTC) (F) (DEG/KT/KT) (MB) (FT/S) NORTHPORT PIER 2040 22 290/ 3/ 12 1014.9F KEWAUNEE LAKESHO 1954 21 270/ 7/ 10 1015.6 SHEBOYGAN LAKESH 2100 22 290/ 8/ 10 1017.6F PORT WASHINGTON 2040 22 300/ 6/ 10 1017.9F MILWAUKEE LAKESH 2000 23 310/ 5/ 6 N/A KENOSHA LAKESH 2000 24 310/ 9/ 11 1017.3 $$ TC - TEMPERATURE IN CELSIUS VSB - VISIBILITY IN STATUTE MILES WCI - WIND CHILL INDEX HX - HEAT INDEX